Miscellaneous Local Product
Issued by NWS Hastings, NE

Home | Current Version | Previous Version | Text Only | Print | Product List | Glossary Off
Versions: 1 2 3 4 5 6 7 8 9 10 11 12 13 14 15 16 17 18 19 20 21 22 23 24 25 26 27 28 29 30 31 32 33 34 35 36 37 38 39 40 41 42 43 44 45 46 47 48 49 50

828
AXUS43 KGID 291502
MISGRI

GID CWA HOURLY WEATHER ROUNDUP
NATIONAL WEATHER SERVICE HASTINGS NE
1000 AM CDT FRI APR 29 2016

NOTE: "FAIR" INDICATES FEW OR NO CLOUDS BELOW 12,000 FEET WITH NO
SIGNIFICANT WEATHER AND/OR OBSTRUCTIONS TO VISIBILITY.

...SOUTH CENTRAL NEBRASKA...

CITY           SKY/WX    TMP DP  RH WIND       PRES   REMARKS
GRAND ISLAND   CLOUDY    44  38  79 NE12      30.08R
HASTINGS       CLOUDY    43  38  82 NE12      30.07R
KEARNEY        CLOUDY    43  37  81 NE14      30.07R
ORD            CLOUDY    43  38  82 N15       30.04S
YORK           CLOUDY    45  39  81 E10       30.11R
AURORA         CLOUDY    44  40  88 E12       30.08R
LEXINGTON      CLOUDY    44  38  79 NE10      30.06R
HOLDREGE       CLOUDY    43  37  81 NE13G18   30.04R
HEBRON         CLOUDY    45  40  81 NE14      30.08R

...NEBRASKA PANHANDLE...

CITY           SKY/WX    TMP DP  RH WIND       PRES   REMARKS
CHADRON        CLOUDY    39  34  82 N5        30.07F
ALLIANCE       CLOUDY    40  35  83 N12       30.01F WCI  33
SCOTTSBLUFF    CLOUDY    40  35  83 NE9       30.03S WCI  34
SIDNEY         CLOUDY    37  35  92 NE9       30.00S WCI  30

...WESTERN AND NORTH CENTRAL NEBRASKA...

CITY           SKY/WX    TMP DP  RH WIND       PRES   REMARKS
VALENTINE      CLOUDY    42  37  82 N10       30.07R
AINSWORTH      CLOUDY    41  38  90 N12       30.07S
ONEILL         CLOUDY    40  38  93 N9        30.08S WCI  34
BROKEN BOW     CLOUDY    43  38  82 N15       30.03F
IMPERIAL       CLOUDY    41  38  89 NE13      30.02R
NORTH PLATTE   CLOUDY    42  36  79 N12       30.02F
MCCOOK         CLOUDY    43  39  86 E13       30.04R

...EASTERN NEBRASKA...

CITY           SKY/WX    TMP DP  RH WIND       PRES   REMARKS
NORFOLK        CLOUDY    43  38  82 NE14      30.06S
SO SIOUX CITY  CLOUDY    45  39  79 NE13      30.09S
TEKAMAH        CLOUDY    45  40  82 NE14      30.10R
COLUMBUS       CLOUDY    45  34  65 NE12      30.09R
ALBION         CLOUDY    44  38  78 NE14      30.06R
OMAHA EPPLEY   CLOUDY    47  39  74 E9        30.12R
OFFUTT AFB     CLOUDY    46  39  77 E9        30.11R
MILLARD        CLOUDY    46  39  74 E7        30.10R
LINCOLN        CLOUDY    47  38  71 E14       30.11R
NEBRASKA CITY  CLOUDY    46  40  82 NE9       30.10R
BEATRICE       CLOUDY    45  39  78 NE14      30.08R
FALLS CITY     CLOUDY    48  42  80 NE9       30.07F

...NORTHERN KANSAS...

CITY           SKY/WX    TMP DP  RH WIND       PRES   REMARKS
GOODLAND       LGT RAIN  40  38  93 NE16      29.97S WCI  31
HILL CITY      CLOUDY    43  39  86 NE13      30.03S
NORTON         CLOUDY    43  34  70 NE14      30.03S
PHILLIPSBURG   CLOUDY    45  37  76 NE12G18   30.05S
SMITH CENTER   CLOUDY    43  37  81 NE14      30.07S
BELOIT         CLOUDY    45  39  81 NE14      30.04S
HAYS           CLOUDY    43  34  70 NE21      30.00F
RUSSELL        LGT RAIN  44  41  89 NE18      29.99R
CONCORDIA      CLOUDY    45  39  79 NE15      30.05R
SALINA         RAIN      47  45  93 E12       30.03S FOG
TOPEKA         CLOUDY    50  42  74 NE12      30.04F



USA.gov is the U.S. government's official web portal to all federal, state and local government web resources and services.